This demonstration page uses our WeatherBlox Daily Observations layout. Learn more.

Left ArrowRight Arrow

53.62937, 11.41316

Hourly Observations for April 8, 2018

Temp ( °F °C ) Dew Point ( °F °C ) Humidity (%) Winds ( mph kmh ) Pressure ( in mb ) Visibility ( mi km ) Precip ( " mm )
6:50 am 06:50 Mostly Sunny 48 9 39 4 71 71 SE 5 7 29.83 1010 7 11 N/A
7:20 am 07:20 Mostly Sunny 48 9 41 5 76 76 SSE 5 7 29.83 1010 7 11 N/A
7:50 am 07:50 Mostly Sunny 50 10 41 5 71 71 VRB 2 4 29.83 1010 7 11 N/A
8:20 am 08:20 Mostly Sunny 52 11 43 6 72 72 SSE 6 9 29.83 1010 7 11 N/A
8:50 am 08:50 Mostly Sunny 54 12 43 6 67 67 SSE 7 11 29.83 1010 7 11 N/A
9:20 am 09:20 Mostly Sunny 55 13 43 6 63 63 SSE 8 13 29.83 1010 7 11 N/A
9:50 am 09:50 Mostly Sunny 57 14 43 6 59 59 SSE 8 13 29.83 1010 7 11 N/A
10:20 am 10:20 Mostly Sunny 57 14 43 6 59 59 SE 9 15 29.83 1010 7 11 N/A
10:50 am 10:50 Mostly Sunny 61 16 45 7 55 55 SE 7 11 29.83 1010 7 11 N/A
11:20 am 11:20 Mostly Sunny 61 16 45 7 55 55 SE 8 13 29.83 1010 7 11 N/A
11:50 am 11:50 Mostly Sunny 63 17 45 7 52 52 SE 9 15 29.80 1009 7 11 N/A
12:20 pm 12:20 Mostly Sunny 64 18 45 7 49 49 SE 6 9 29.80 1009 7 11 N/A
12:50 pm 12:50 Mostly Sunny 66 19 45 7 46 46 SE 9 15 29.80 1009 7 11 N/A
1:20 pm 13:20 Mostly Sunny 68 20 46 8 46 46 SE 9 15 29.80 1009 7 11 N/A
1:50 pm 13:50 Mostly Sunny 70 21 45 7 40 40 SE 9 15 29.80 1009 7 11 N/A
2:20 pm 14:20 Mostly Sunny 70 21 46 8 43 43 SE 9 15 29.80 1009 7 11 N/A
2:50 pm 14:50 Mostly Sunny 72 22 45 7 38 38 SSE 9 15 29.77 1008 7 11 N/A
3:20 pm 15:20 Mostly Sunny 72 22 43 6 36 36 SE 10 17 29.77 1008 7 11 N/A
3:50 pm 15:50 Mostly Sunny 72 22 45 7 38 38 SE 9 15 29.77 1008 7 11 N/A
4:20 pm 16:20 Mostly Sunny 72 22 46 8 41 41 SE 9 15 29.77 1008 7 11 N/A
4:50 pm 16:50 Mostly Sunny 72 22 46 8 41 41 SSE 8 13 29.77 1008 7 11 N/A
5:20 pm 17:20 Mostly Sunny 72 22 46 8 41 41 SE 8 13 29.74 1007 7 11 N/A
5:50 pm 17:50 Mostly Sunny 72 22 46 8 41 41 SE 8 13 29.74 1007 7 11 N/A
6:20 pm 18:20 Mostly Sunny 70 21 45 7 40 40 SE 7 11 29.74 1007 7 11 N/A
6:50 pm 18:50 Mostly Sunny 70 21 46 8 43 43 SE 7 11 29.74 1007 7 11 N/A
7:20 pm 19:20 Mostly Sunny 68 20 46 8 46 46 SE 7 11 29.74 1007 7 11 N/A
7:50 pm 19:50 Mostly Sunny 64 18 46 8 52 52 SE 5 7 29.74 1007 7 11 N/A
8:20 pm 20:20 Mostly Clear 63 17 48 9 59 59 SE 3 6 29.77 1008 7 11 N/A
8:50 pm 20:50 Mostly Clear 61 16 46 8 59 59 SE 5 7 29.77 1008 7 11 N/A

Powered by AerisWeather